Regional Weather Roundup
Issued by NWS

Home | Current Version | Previous Version | Text Only | Print | Product List | Glossary Off
Versions: 1 2 3 4 5 6 7 8 9 10 11 12 13 14 15 16 17 18 19 20 21 22 23 24 25 26 27 28 29 30 31 32 33 34 35 36 37 38 39 40 41 42 43 44 45 46 47 48 49 50

000
ASUS45 KABQ 292201
RWRNM
NEW MEXICO REGIONAL WEATHER ROUNDUP
NATIONAL WEATHER SERVICE ALBUQUERQUE NM
400 PM MDT SUN MAY 29 2016

NOTE: "FAIR" MEANS FEW OR NO CLOUDS BELOW 12,000 FEET AGL WITH NO
       SIGNIFICANT WEATHER OR OBSTRUCTIONS TO VISION.

      THIS PRODUCT IS RELEASED AS TWO VERSIONS.  ONE VERSION NEAR
      THE TOP OF THE HOUR CONTAINING PRELIMINARY DATA FROM ALBUQUERQUE
      AND OTHER STATIONS.  A FINAL VERSION WITH ADDITIONAL DATA IS
      ISSUED ABOUT 10 MINUTES AFTER THE HOUR.

NMZ501-503-504-510>518-292300-
NORTHWEST PLATEAU/NORTHCENTRAL MOUNTAINS

CITY           SKY/WX    TMP DP  RH WIND       PRES   REMARKS
FARMINGTON     FAIR      80   9   6 SW14G20   30.04F
SANTA FE       FAIR      83  10   6 W16G30    30.11F
TAOS           FAIR      77  18  10 W20G28    30.17F

$$
NMZ402-403-502-505>509-292300-
WESTCENTRAL MOUNTAINS/SOUTHWEST MOUNTAINS

CITY           SKY/WX    TMP DP  RH WIND       PRES   REMARKS
GALLUP         FAIR      78  11   8 VRB7G20   30.13F
GRANTS         FAIR      77  10   7 SE10G16   30.14F
SILVER CITY      N/A     82  23  11 S16G23    30.12F

$$
NMZ407-409-411-412-292300-
SOUTHERN DESERTS

CITY           SKY/WX    TMP DP  RH WIND       PRES   REMARKS
LORDSBURG      FAIR      88  21   8 S10G30    30.01F
DEMING         FAIR      88  26  10 SW14G25   30.03F
HOLLOMAN AFB   PTSUNNY   89  21   8 SW12      30.00F
ALAMOGORDO     FAIR      90  25   9 SW7G21    30.02F
T OR C         FAIR      87  17   7 S22G32    30.03F

$$
NMZ519>523-292300-
CENTRAL VALLEYS/CENTRAL HIGHLANDS

CITY           SKY/WX    TMP DP  RH WIND       PRES   REMARKS
ALBUQUERQUE    FAIR      85  14   7 S13G24    30.05F
DOUBLE EAGLE   MOSUNNY   82  18   9 S9G16     30.09F
CLINES CORNERS FAIR      77  15   9 SW21G36   30.18F
BELEN          FAIR      85  14   7 SE15      30.04F
SOCORRO        NOT AVBL

$$
NMZ524>526-539-540-292300-
SOUTHCENTRAL MOUNTAINS

CITY           SKY/WX    TMP DP  RH WIND       PRES   REMARKS
RUIDOSO        NOT AVBL

$$
NMZ527>531-292300-
NORTHEAST HIGHLANDS/NORTHEAST PLAINS

CITY           SKY/WX    TMP DP  RH WIND       PRES   REMARKS
LAS VEGAS      FAIR      72  31  22 S18G29    30.18F
RATON          FAIR      73  34  23 MISG      30.13F
CLAYTON        LGT RAIN  71  39  31 S23       30.07F

$$
NMZ532>537-292300-
EASTCENTRAL PLAINS

CITY           SKY/WX    TMP DP  RH WIND       PRES   REMARKS
TUCUMCARI      FAIR      71  48  43 E21G28    30.05F
CANNON AFB     PTSUNNY   76  58  52 S16       30.05F THUNDER
CLOVIS AIRPORT FAIR      77  57  50 S14       30.07F

$$
NMZ028-029-538-292300-
SOUTHEAST PLAINS

CITY           SKY/WX    TMP DP  RH WIND       PRES   REMARKS
ROSWELL        FAIR      86  39  19 S15G25    30.01F
ARTESIA        TSTM      72  61  68 SW30G37   30.04R
CARLSBAD       FAIR      79  56  45 E9        29.99F
HOBBS          MOSUNNY   77  63  61 SE12G17   30.07F


$$




USA.gov is the U.S. government's official web portal to all federal, state and local government web resources and services.